Weather History for KDCU - January, 2014

Change the Weather History Date:

Monday, January 13, 2014

  Actual Average Record
Temperature  
Mean Temperature 49 °F -  
Max Temperature 52 °F 46 °F 75 °F (1972)
Min Temperature 46 °F 27 °F 5 °F (1962)
Degree Days  
Heating Degree Days 16    
Moisture  
Dew Point 47 °F    
Average Humidity 90    
Maximum Humidity 100    
Minimum Humidity 54    
Precipitation  
Precipitation 0.55 in - - ()
Sea Level Pressure  
Sea Level Pressure 29.92 in    
Wind  
Wind Speed 11 mph (South)    
Max Wind Speed 16 mph    
Max Gust Speed -    
Visibility 7 miles    
Events Rain    
Averages and records for this station are not official NWS values.
T = Trace of Precipitation, MM = Missing Value Source: NWS Daily Summary

Daily Weather History Graph

Daily Weather History Graph

Search for Another Location

Airport or City:

Trip Planner

Search our weather history database for the weather conditions in past years. The results will help you decide how hot, cold, wet, or windy it might be!

Date:

Astronomy

Jan. 13, 2014 Rise Set
Actual Time 6:54 AM CST 4:58 PM CST
Civil Twilight 6:27 AM CST 5:25 PM CST
Nautical Twilight 5:56 AM CST 5:56 PM CST
Astronomical Twilight 5:26 AM CST 6:27 PM CST
Moon 3:12 PM CST (1/13) 4:44 AM CST (1/13)
Length of Visible Light 10h 58m
Length of Day
10h 03m
Waxing Gibbous, 95% of the Moon is Illuminated
Jan 13
Waxing Gibbous
Jan 15
Full
Jan 23
Last Quarter
Jan 30
New
Feb 6
First Quarter

Hourly Weather History & Observations

Time (CST) Temp. Dew Point Humidity Pressure Visibility Wind Dir Wind Speed Gust Speed Precip Events Conditions
12:53 AM 48.9 °F 34.0 °F 56% 30.06 in 10.0 mi South 12.7 mph - N/A   Clear
1:53 AM 48.0 °F 34.0 °F 58% 30.08 in 10.0 mi South 8.1 mph - N/A   Clear
2:53 AM 46.9 °F 33.1 °F 59% 30.06 in 10.0 mi South 9.2 mph - N/A   Clear
3:53 AM 48.9 °F 33.1 °F 54% 30.01 in 10.0 mi SE 8.1 mph - N/A   Mostly Cloudy
4:53 AM 51.1 °F 37.0 °F 59% 30.05 in 10.0 mi SSW 11.5 mph - N/A   Mostly Cloudy
5:53 AM 48.9 °F 42.1 °F 77% 30.05 in 10.0 mi South 12.7 mph - 0.01 in Rain Light Rain
6:53 AM 46.9 °F 45.0 °F 93% 30.05 in 7.0 mi South 12.7 mph - 0.09 in Rain Rain
7:53 AM 48.0 °F 46.9 °F 96% 30.03 in 6.0 mi South 10.4 mph - 0.04 in Rain Rain
8:53 AM 48.9 °F 46.9 °F 93% 30.02 in 7.0 mi South 11.5 mph - 0.06 in Rain Light Rain
9:53 AM 48.0 °F 46.9 °F 96% 30.01 in 5.0 mi SSE 11.5 mph - 0.11 in Rain Rain
10:53 AM 48.9 °F 48.0 °F 97% 30.01 in 8.0 mi South 8.1 mph - 0.07 in Rain Light Rain
11:05 AM 48.2 °F 48.2 °F 100% 29.99 in 8.0 mi South 11.5 mph - 0.01 in Rain Light Rain
11:15 AM 48.2 °F 46.4 °F 93% 29.98 in 8.0 mi South 12.7 mph - 0.02 in Rain Light Rain
11:53 AM 50.0 °F 48.0 °F 93% 29.92 in 10.0 mi SSE 16.1 mph - 0.04 in Rain Light Rain
12:53 PM 51.1 °F 48.9 °F 92% 29.86 in 10.0 mi SSE 16.1 mph - 0.00 in   Mostly Cloudy
1:19 PM 51.8 °F 50.0 °F 94% 29.83 in 10.0 mi SSE 16.1 mph - N/A   Overcast
1:51 PM 51.8 °F 50.0 °F 94% 29.85 in 10.0 mi South 13.8 mph - N/A   Overcast
1:53 PM 52.0 °F 50.0 °F 93% 29.85 in 10.0 mi South 12.7 mph - N/A   Overcast
2:53 PM 52.0 °F 50.0 °F 93% 29.84 in 10.0 mi South 12.7 mph - N/A   Overcast
3:53 PM 51.1 °F 50.0 °F 96% 29.85 in 4.0 mi South 12.7 mph - 0.00 in Rain Light Rain
4:21 PM 51.8 °F 50.0 °F 94% 29.85 in 4.0 mi South 10.4 mph - 0.01 in Rain Light Rain
4:53 PM 51.1 °F 50.0 °F 96% 29.84 in 5.0 mi South 12.7 mph - 0.01 in Rain Light Rain
5:53 PM 51.1 °F 50.0 °F 96% 29.84 in 10.0 mi North - - 0.01 in Rain Light Rain
6:53 PM 51.1 °F 50.0 °F 96% 29.85 in 10.0 mi South 10.4 mph - 0.00 in   Overcast
7:53 PM 51.1 °F 50.0 °F 96% 29.84 in 10.0 mi South 11.5 mph - 0.00 in Rain Light Rain
8:53 PM 51.1 °F 50.0 °F 96% 29.85 in 6.0 mi South 5.8 mph - 0.05 in Rain Light Rain
9:53 PM 50.0 °F 50.0 °F 100% 29.85 in 2.0 mi South 3.5 mph - 0.03 in Rain Heavy Rain
10:05 PM 50.0 °F 50.0 °F 100% 29.85 in 4.0 mi Calm Calm - 0.00 in Rain Light Rain
10:22 PM 51.8 °F 51.8 °F 100% 29.85 in 3.0 mi South 4.6 mph - 0.01 in Rain Light Rain
10:29 PM 51.8 °F 51.8 °F 100% 29.85 in 3.0 mi Calm Calm - 0.01 in Rain Rain
10:50 PM 51.8 °F 51.8 °F 100% 29.84 in 2.5 mi WSW 6.9 mph - 0.03 in Rain Light Rain
10:53 PM 51.1 °F 51.1 °F 100% 29.84 in 3.0 mi WSW 8.1 mph - 0.03 in Rain Light Rain
11:53 PM 51.1 °F 50.0 °F 96% 29.85 in 10.0 mi NW 10.4 mph - 0.00 in   Overcast